Index of /20260429/WXO-DD/model_rdps/10km/06/017
Name Last modified Size Description
Parent Directory -
20260429T06Z_MSC_RDPS_AbsoluteVorticity_IsbL-0250_RLatLon0.09_PT017H.grib2 2026-04-29 08:43 642K
20260429T06Z_MSC_RDPS_AbsoluteVorticity_IsbL-0500_RLatLon0.09_PT017H.grib2 2026-04-29 08:43 578K
20260429T06Z_MSC_RDPS_AbsoluteVorticity_IsbL-0700_RLatLon0.09_PT017H.grib2 2026-04-29 08:43 632K
20260429T06Z_MSC_RDPS_AbsoluteVorticity_IsbL-0850_RLatLon0.09_PT017H.grib2 2026-04-29 08:43 773K
20260429T06Z_MSC_RDPS_AirTemp_AGL-120m_RLatLon0.09_PT017H.grib2 2026-04-29 08:43 386K
20260429T06Z_MSC_RDPS_AirTemp_AGL-2m_RLatLon0.09_PT017H.grib2 2026-04-29 08:43 614K
20260429T06Z_MSC_RDPS_AirTemp_AGL-40m_RLatLon0.09_PT017H.grib2 2026-04-29 08:43 394K
20260429T06Z_MSC_RDPS_AirTemp_AGL-80m_RLatLon0.09_PT017H.grib2 2026-04-29 08:43 389K
20260429T06Z_MSC_RDPS_AirTemp_IsbL-0001_RLatLon0.09_PT017H.grib2 2026-04-29 08:43 270K
20260429T06Z_MSC_RDPS_AirTemp_IsbL-0005_RLatLon0.09_PT017H.grib2 2026-04-29 08:43 292K
20260429T06Z_MSC_RDPS_AirTemp_IsbL-0010_RLatLon0.09_PT017H.grib2 2026-04-29 08:43 303K
20260429T06Z_MSC_RDPS_AirTemp_IsbL-0020_RLatLon0.09_PT017H.grib2 2026-04-29 08:43 316K
20260429T06Z_MSC_RDPS_AirTemp_IsbL-0030_RLatLon0.09_PT017H.grib2 2026-04-29 08:43 339K
20260429T06Z_MSC_RDPS_AirTemp_IsbL-0050_RLatLon0.09_PT017H.grib2 2026-04-29 08:43 313K
20260429T06Z_MSC_RDPS_AirTemp_IsbL-0100_RLatLon0.09_PT017H.grib2 2026-04-29 08:43 431K
20260429T06Z_MSC_RDPS_AirTemp_IsbL-0150_RLatLon0.09_PT017H.grib2 2026-04-29 08:43 431K
20260429T06Z_MSC_RDPS_AirTemp_IsbL-0175_RLatLon0.09_PT017H.grib2 2026-04-29 08:43 420K
20260429T06Z_MSC_RDPS_AirTemp_IsbL-0200_RLatLon0.09_PT017H.grib2 2026-04-29 08:43 424K
20260429T06Z_MSC_RDPS_AirTemp_IsbL-0225_RLatLon0.09_PT017H.grib2 2026-04-29 08:43 428K
20260429T06Z_MSC_RDPS_AirTemp_IsbL-0250_RLatLon0.09_PT017H.grib2 2026-04-29 08:43 441K
20260429T06Z_MSC_RDPS_AirTemp_IsbL-0275_RLatLon0.09_PT017H.grib2 2026-04-29 08:43 418K
20260429T06Z_MSC_RDPS_AirTemp_IsbL-0300_RLatLon0.09_PT017H.grib2 2026-04-29 08:43 424K
20260429T06Z_MSC_RDPS_AirTemp_IsbL-0350_RLatLon0.09_PT017H.grib2 2026-04-29 08:43 435K
20260429T06Z_MSC_RDPS_AirTemp_IsbL-0400_RLatLon0.09_PT017H.grib2 2026-04-29 08:43 436K
20260429T06Z_MSC_RDPS_AirTemp_IsbL-0450_RLatLon0.09_PT017H.grib2 2026-04-29 08:43 407K
20260429T06Z_MSC_RDPS_AirTemp_IsbL-0500_RLatLon0.09_PT017H.grib2 2026-04-29 08:43 419K
20260429T06Z_MSC_RDPS_AirTemp_IsbL-0550_RLatLon0.09_PT017H.grib2 2026-04-29 08:43 438K
20260429T06Z_MSC_RDPS_AirTemp_IsbL-0600_RLatLon0.09_PT017H.grib2 2026-04-29 08:43 455K
20260429T06Z_MSC_RDPS_AirTemp_IsbL-0650_RLatLon0.09_PT017H.grib2 2026-04-29 08:43 473K
20260429T06Z_MSC_RDPS_AirTemp_IsbL-0700_RLatLon0.09_PT017H.grib2 2026-04-29 08:43 388K
20260429T06Z_MSC_RDPS_AirTemp_IsbL-0750_RLatLon0.09_PT017H.grib2 2026-04-29 08:43 418K
20260429T06Z_MSC_RDPS_AirTemp_IsbL-0800_RLatLon0.09_PT017H.grib2 2026-04-29 08:43 453K
20260429T06Z_MSC_RDPS_AirTemp_IsbL-0850_RLatLon0.09_PT017H.grib2 2026-04-29 08:43 496K
20260429T06Z_MSC_RDPS_AirTemp_IsbL-0875_RLatLon0.09_PT017H.grib2 2026-04-29 08:43 514K
20260429T06Z_MSC_RDPS_AirTemp_IsbL-0900_RLatLon0.09_PT017H.grib2 2026-04-29 08:43 524K
20260429T06Z_MSC_RDPS_AirTemp_IsbL-0925_RLatLon0.09_PT017H.grib2 2026-04-29 08:43 521K
20260429T06Z_MSC_RDPS_AirTemp_IsbL-0950_RLatLon0.09_PT017H.grib2 2026-04-29 08:43 521K
20260429T06Z_MSC_RDPS_AirTemp_IsbL-0970_RLatLon0.09_PT017H.grib2 2026-04-29 08:43 523K
20260429T06Z_MSC_RDPS_AirTemp_IsbL-0985_RLatLon0.09_PT017H.grib2 2026-04-29 08:43 512K
20260429T06Z_MSC_RDPS_AirTemp_IsbL-1000_RLatLon0.09_PT017H.grib2 2026-04-29 08:43 500K
20260429T06Z_MSC_RDPS_AirTemp_IsbL-1015_RLatLon0.09_PT017H.grib2 2026-04-29 08:43 497K
20260429T06Z_MSC_RDPS_Albedo_Sfc_RLatLon0.09_PT017H.grib2 2026-04-29 08:43 155K
20260429T06Z_MSC_RDPS_CAPE_Sfc_RLatLon0.09_PT017H.grib2 2026-04-29 08:43 1.6M
20260429T06Z_MSC_RDPS_CIN_Sfc_RLatLon0.09_PT017H.grib2 2026-04-29 08:43 1.2M
20260429T06Z_MSC_RDPS_CloudWater_EAtm_RLatLon0.09_PT017H.grib2 2026-04-29 08:43 222K
20260429T06Z_MSC_RDPS_ConvectivePrecip-Accum_Sfc_RLatLon0.09_PT017H.grib2 2026-04-29 08:43 728K
20260429T06Z_MSC_RDPS_DewPointDepression_AGL-2m_RLatLon0.09_PT017H.grib2 2026-04-29 08:43 410K
20260429T06Z_MSC_RDPS_DewPointDepression_IsbL-0001_RLatLon0.09_PT017H.grib2 2026-04-29 08:43 193
20260429T06Z_MSC_RDPS_DewPointDepression_IsbL-0005_RLatLon0.09_PT017H.grib2 2026-04-29 08:43 193
20260429T06Z_MSC_RDPS_DewPointDepression_IsbL-0010_RLatLon0.09_PT017H.grib2 2026-04-29 08:43 193
20260429T06Z_MSC_RDPS_DewPointDepression_IsbL-0020_RLatLon0.09_PT017H.grib2 2026-04-29 08:43 193
20260429T06Z_MSC_RDPS_DewPointDepression_IsbL-0030_RLatLon0.09_PT017H.grib2 2026-04-29 08:43 193
20260429T06Z_MSC_RDPS_DewPointDepression_IsbL-0050_RLatLon0.09_PT017H.grib2 2026-04-29 08:43 92K
20260429T06Z_MSC_RDPS_DewPointDepression_IsbL-0100_RLatLon0.09_PT017H.grib2 2026-04-29 08:43 133K
20260429T06Z_MSC_RDPS_DewPointDepression_IsbL-0150_RLatLon0.09_PT017H.grib2 2026-04-29 08:43 156K
20260429T06Z_MSC_RDPS_DewPointDepression_IsbL-0175_RLatLon0.09_PT017H.grib2 2026-04-29 08:43 184K
20260429T06Z_MSC_RDPS_DewPointDepression_IsbL-0200_RLatLon0.09_PT017H.grib2 2026-04-29 08:43 225K
20260429T06Z_MSC_RDPS_DewPointDepression_IsbL-0225_RLatLon0.09_PT017H.grib2 2026-04-29 08:43 275K
20260429T06Z_MSC_RDPS_DewPointDepression_IsbL-0250_RLatLon0.09_PT017H.grib2 2026-04-29 08:43 314K
20260429T06Z_MSC_RDPS_DewPointDepression_IsbL-0275_RLatLon0.09_PT017H.grib2 2026-04-29 08:43 318K
20260429T06Z_MSC_RDPS_DewPointDepression_IsbL-0300_RLatLon0.09_PT017H.grib2 2026-04-29 08:43 339K
20260429T06Z_MSC_RDPS_DewPointDepression_IsbL-0350_RLatLon0.09_PT017H.grib2 2026-04-29 08:43 343K
20260429T06Z_MSC_RDPS_DewPointDepression_IsbL-0400_RLatLon0.09_PT017H.grib2 2026-04-29 08:43 348K
20260429T06Z_MSC_RDPS_DewPointDepression_IsbL-0450_RLatLon0.09_PT017H.grib2 2026-04-29 08:43 355K
20260429T06Z_MSC_RDPS_DewPointDepression_IsbL-0500_RLatLon0.09_PT017H.grib2 2026-04-29 08:43 364K
20260429T06Z_MSC_RDPS_DewPointDepression_IsbL-0550_RLatLon0.09_PT017H.grib2 2026-04-29 08:43 376K
20260429T06Z_MSC_RDPS_DewPointDepression_IsbL-0600_RLatLon0.09_PT017H.grib2 2026-04-29 08:43 388K
20260429T06Z_MSC_RDPS_DewPointDepression_IsbL-0650_RLatLon0.09_PT017H.grib2 2026-04-29 08:43 395K
20260429T06Z_MSC_RDPS_DewPointDepression_IsbL-0700_RLatLon0.09_PT017H.grib2 2026-04-29 08:43 405K
20260429T06Z_MSC_RDPS_DewPointDepression_IsbL-0750_RLatLon0.09_PT017H.grib2 2026-04-29 08:43 423K
20260429T06Z_MSC_RDPS_DewPointDepression_IsbL-0800_RLatLon0.09_PT017H.grib2 2026-04-29 08:43 445K
20260429T06Z_MSC_RDPS_DewPointDepression_IsbL-0850_RLatLon0.09_PT017H.grib2 2026-04-29 08:43 469K
20260429T06Z_MSC_RDPS_DewPointDepression_IsbL-0875_RLatLon0.09_PT017H.grib2 2026-04-29 08:43 469K
20260429T06Z_MSC_RDPS_DewPointDepression_IsbL-0900_RLatLon0.09_PT017H.grib2 2026-04-29 08:43 463K
20260429T06Z_MSC_RDPS_DewPointDepression_IsbL-0925_RLatLon0.09_PT017H.grib2 2026-04-29 08:43 450K
20260429T06Z_MSC_RDPS_DewPointDepression_IsbL-0950_RLatLon0.09_PT017H.grib2 2026-04-29 08:43 443K
20260429T06Z_MSC_RDPS_DewPointDepression_IsbL-0970_RLatLon0.09_PT017H.grib2 2026-04-29 08:43 432K
20260429T06Z_MSC_RDPS_DewPointDepression_IsbL-0985_RLatLon0.09_PT017H.grib2 2026-04-29 08:43 424K
20260429T06Z_MSC_RDPS_DewPointDepression_IsbL-1000_RLatLon0.09_PT017H.grib2 2026-04-29 08:43 419K
20260429T06Z_MSC_RDPS_DewPointDepression_IsbL-1015_RLatLon0.09_PT017H.grib2 2026-04-29 08:43 409K
20260429T06Z_MSC_RDPS_DewPoint_AGL-2m_RLatLon0.09_PT017H.grib2 2026-04-29 08:43 391K
20260429T06Z_MSC_RDPS_DownwardLongwaveRadiationFlux-Accum_Sfc_RLatLon0.09_PT017H.grib2 2026-04-29 08:43 391K
20260429T06Z_MSC_RDPS_DownwardShortwaveRadiationFlux-Accum_NTAtm_RLatLon0.09_PT017H.grib2 2026-04-29 08:43 117K
20260429T06Z_MSC_RDPS_DownwardShortwaveRadiationFlux-Accum_Sfc_RLatLon0.09_PT017H.grib2 2026-04-29 08:43 593K
20260429T06Z_MSC_RDPS_FreezingRain-Accum1h_Sfc_RLatLon0.09_PT017H.grib2 2026-04-29 08:43 11K
20260429T06Z_MSC_RDPS_FreezingRain-Accum_Sfc_RLatLon0.09_PT017H.grib2 2026-04-29 08:43 83K
20260429T06Z_MSC_RDPS_GeopotentialHeight_IsbL-0001_RLatLon0.09_PT017H.grib2 2026-04-29 08:43 243K
20260429T06Z_MSC_RDPS_GeopotentialHeight_IsbL-0005_RLatLon0.09_PT017H.grib2 2026-04-29 08:43 337K
20260429T06Z_MSC_RDPS_GeopotentialHeight_IsbL-0010_RLatLon0.09_PT017H.grib2 2026-04-29 08:43 305K
20260429T06Z_MSC_RDPS_GeopotentialHeight_IsbL-0020_RLatLon0.09_PT017H.grib2 2026-04-29 08:43 304K
20260429T06Z_MSC_RDPS_GeopotentialHeight_IsbL-0030_RLatLon0.09_PT017H.grib2 2026-04-29 08:43 306K
20260429T06Z_MSC_RDPS_GeopotentialHeight_IsbL-0050_RLatLon0.09_PT017H.grib2 2026-04-29 08:43 340K
20260429T06Z_MSC_RDPS_GeopotentialHeight_IsbL-0100_RLatLon0.09_PT017H.grib2 2026-04-29 08:43 287K
20260429T06Z_MSC_RDPS_GeopotentialHeight_IsbL-0150_RLatLon0.09_PT017H.grib2 2026-04-29 08:43 232K
20260429T06Z_MSC_RDPS_GeopotentialHeight_IsbL-0175_RLatLon0.09_PT017H.grib2 2026-04-29 08:43 266K
20260429T06Z_MSC_RDPS_GeopotentialHeight_IsbL-0200_RLatLon0.09_PT017H.grib2 2026-04-29 08:43 268K
20260429T06Z_MSC_RDPS_GeopotentialHeight_IsbL-0225_RLatLon0.09_PT017H.grib2 2026-04-29 08:43 269K
20260429T06Z_MSC_RDPS_GeopotentialHeight_IsbL-0250_RLatLon0.09_PT017H.grib2 2026-04-29 08:43 271K
20260429T06Z_MSC_RDPS_GeopotentialHeight_IsbL-0275_RLatLon0.09_PT017H.grib2 2026-04-29 08:43 269K
20260429T06Z_MSC_RDPS_GeopotentialHeight_IsbL-0300_RLatLon0.09_PT017H.grib2 2026-04-29 08:43 270K
20260429T06Z_MSC_RDPS_GeopotentialHeight_IsbL-0350_RLatLon0.09_PT017H.grib2 2026-04-29 08:43 235K
20260429T06Z_MSC_RDPS_GeopotentialHeight_IsbL-0400_RLatLon0.09_PT017H.grib2 2026-04-29 08:43 232K
20260429T06Z_MSC_RDPS_GeopotentialHeight_IsbL-0450_RLatLon0.09_PT017H.grib2 2026-04-29 08:43 300K
20260429T06Z_MSC_RDPS_GeopotentialHeight_IsbL-0500_RLatLon0.09_PT017H.grib2 2026-04-29 08:43 295K
20260429T06Z_MSC_RDPS_GeopotentialHeight_IsbL-0550_RLatLon0.09_PT017H.grib2 2026-04-29 08:43 292K
20260429T06Z_MSC_RDPS_GeopotentialHeight_IsbL-0600_RLatLon0.09_PT017H.grib2 2026-04-29 08:43 289K
20260429T06Z_MSC_RDPS_GeopotentialHeight_IsbL-0650_RLatLon0.09_PT017H.grib2 2026-04-29 08:43 258K
20260429T06Z_MSC_RDPS_GeopotentialHeight_IsbL-0700_RLatLon0.09_PT017H.grib2 2026-04-29 08:43 339K
20260429T06Z_MSC_RDPS_GeopotentialHeight_IsbL-0750_RLatLon0.09_PT017H.grib2 2026-04-29 08:43 341K
20260429T06Z_MSC_RDPS_GeopotentialHeight_IsbL-0800_RLatLon0.09_PT017H.grib2 2026-04-29 08:43 346K
20260429T06Z_MSC_RDPS_GeopotentialHeight_IsbL-0850_RLatLon0.09_PT017H.grib2 2026-04-29 08:43 354K
20260429T06Z_MSC_RDPS_GeopotentialHeight_IsbL-0875_RLatLon0.09_PT017H.grib2 2026-04-29 08:43 390K
20260429T06Z_MSC_RDPS_GeopotentialHeight_IsbL-0900_RLatLon0.09_PT017H.grib2 2026-04-29 08:43 394K
20260429T06Z_MSC_RDPS_GeopotentialHeight_IsbL-0925_RLatLon0.09_PT017H.grib2 2026-04-29 08:43 397K
20260429T06Z_MSC_RDPS_GeopotentialHeight_IsbL-0950_RLatLon0.09_PT017H.grib2 2026-04-29 08:43 401K
20260429T06Z_MSC_RDPS_GeopotentialHeight_IsbL-0970_RLatLon0.09_PT017H.grib2 2026-04-29 08:43 407K
20260429T06Z_MSC_RDPS_GeopotentialHeight_IsbL-0985_RLatLon0.09_PT017H.grib2 2026-04-29 08:43 415K
20260429T06Z_MSC_RDPS_GeopotentialHeight_IsbL-1000_RLatLon0.09_PT017H.grib2 2026-04-29 08:43 428K
20260429T06Z_MSC_RDPS_GeopotentialHeight_IsbL-1015_RLatLon0.09_PT017H.grib2 2026-04-29 08:43 442K
20260429T06Z_MSC_RDPS_Humidex_Sfc_RLatLon0.09_PT017H.grib2 2026-04-29 08:43 2.4M
20260429T06Z_MSC_RDPS_IcePellets-Accum1h_Sfc_RLatLon0.09_PT017H.grib2 2026-04-29 08:43 2.0K
20260429T06Z_MSC_RDPS_IcePellets-Accum_Sfc_RLatLon0.09_PT017H.grib2 2026-04-29 08:43 13K
20260429T06Z_MSC_RDPS_KIndex_Sfc_RLatLon0.09_PT017H.grib2 2026-04-29 08:43 2.5M
20260429T06Z_MSC_RDPS_LatentHeatNetFlux_Sfc_RLatLon0.09_PT017H.grib2 2026-04-29 08:43 364K
20260429T06Z_MSC_RDPS_LiftedIndex-MU-VT_IsbL-0500_RLatLon0.09_PT017H.grib2 2026-04-29 08:43 2.4M
20260429T06Z_MSC_RDPS_NetLongwaveRadiationFlux-Accum_Sfc_RLatLon0.09_PT017H.grib2 2026-04-29 08:43 523K
20260429T06Z_MSC_RDPS_NetShortwaveRadiationFlux-Accum_Sfc_RLatLon0.09_PT017H.grib2 2026-04-29 08:43 594K
20260429T06Z_MSC_RDPS_PlanetaryBoundaryLayerHeight_Sfc_RLatLon0.09_PT017H.grib2 2026-04-29 08:43 1.0M
20260429T06Z_MSC_RDPS_Precip-Accum1h_Sfc_RLatLon0.09_PT017H.grib2 2026-04-29 08:43 1.1M
20260429T06Z_MSC_RDPS_Precip-Accum_Sfc_RLatLon0.09_PT017H.grib2 2026-04-29 08:43 1.6M
20260429T06Z_MSC_RDPS_PrecipRate_Sfc_RLatLon0.09_PT017H.grib2 2026-04-29 08:43 157K
20260429T06Z_MSC_RDPS_PrecipType-Instant_Sfc_RLatLon0.09_PT017H.grib2 2026-04-29 08:43 550K
20260429T06Z_MSC_RDPS_Pressure-Trend3h_Sfc_RLatLon0.09_PT017H.grib2 2026-04-29 08:43 1.2M
20260429T06Z_MSC_RDPS_Pressure_MSL_RLatLon0.09_PT017H.grib2 2026-04-29 08:43 328K
20260429T06Z_MSC_RDPS_Pressure_PVU-1.5_RLatLon0.09_PT017H.grib2 2026-04-29 08:43 2.5M
20260429T06Z_MSC_RDPS_Pressure_PVU-1_RLatLon0.09_PT017H.grib2 2026-04-29 08:43 2.4M
20260429T06Z_MSC_RDPS_Pressure_PVU-2_RLatLon0.09_PT017H.grib2 2026-04-29 08:43 2.4M
20260429T06Z_MSC_RDPS_Pressure_Sfc_RLatLon0.09_PT017H.grib2 2026-04-29 08:43 499K
20260429T06Z_MSC_RDPS_RadiativeTemp_Sfc_RLatLon0.09_PT017H.grib2 2026-04-29 08:43 314K
20260429T06Z_MSC_RDPS_Rain-Accum1h_Sfc_RLatLon0.09_PT017H.grib2 2026-04-29 08:43 512K
20260429T06Z_MSC_RDPS_Rain-Accum_Sfc_RLatLon0.09_PT017H.grib2 2026-04-29 08:43 1.2M
20260429T06Z_MSC_RDPS_RelativeHumidity_AGL-2m_RLatLon0.09_PT017H.grib2 2026-04-29 08:43 1.0M
20260429T06Z_MSC_RDPS_RelativeHumidity_IsbL-0010_RLatLon0.09_PT017H.grib2 2026-04-29 08:43 634K
20260429T06Z_MSC_RDPS_RelativeHumidity_IsbL-0020_RLatLon0.09_PT017H.grib2 2026-04-29 08:43 648K
20260429T06Z_MSC_RDPS_RelativeHumidity_IsbL-0030_RLatLon0.09_PT017H.grib2 2026-04-29 08:43 605K
20260429T06Z_MSC_RDPS_RelativeHumidity_IsbL-0050_RLatLon0.09_PT017H.grib2 2026-04-29 08:43 271K
20260429T06Z_MSC_RDPS_RelativeHumidity_IsbL-0100_RLatLon0.09_PT017H.grib2 2026-04-29 08:43 290K
20260429T06Z_MSC_RDPS_RelativeHumidity_IsbL-0150_RLatLon0.09_PT017H.grib2 2026-04-29 08:43 423K
20260429T06Z_MSC_RDPS_RelativeHumidity_IsbL-0175_RLatLon0.09_PT017H.grib2 2026-04-29 08:43 493K
20260429T06Z_MSC_RDPS_RelativeHumidity_IsbL-0200_RLatLon0.09_PT017H.grib2 2026-04-29 08:43 565K
20260429T06Z_MSC_RDPS_RelativeHumidity_IsbL-0225_RLatLon0.09_PT017H.grib2 2026-04-29 08:43 637K
20260429T06Z_MSC_RDPS_RelativeHumidity_IsbL-0250_RLatLon0.09_PT017H.grib2 2026-04-29 08:43 711K
20260429T06Z_MSC_RDPS_RelativeHumidity_IsbL-0275_RLatLon0.09_PT017H.grib2 2026-04-29 08:43 740K
20260429T06Z_MSC_RDPS_RelativeHumidity_IsbL-0300_RLatLon0.09_PT017H.grib2 2026-04-29 08:43 788K
20260429T06Z_MSC_RDPS_RelativeHumidity_IsbL-0350_RLatLon0.09_PT017H.grib2 2026-04-29 08:43 805K
20260429T06Z_MSC_RDPS_RelativeHumidity_IsbL-0400_RLatLon0.09_PT017H.grib2 2026-04-29 08:43 811K
20260429T06Z_MSC_RDPS_RelativeHumidity_IsbL-0450_RLatLon0.09_PT017H.grib2 2026-04-29 08:43 813K
20260429T06Z_MSC_RDPS_RelativeHumidity_IsbL-0500_RLatLon0.09_PT017H.grib2 2026-04-29 08:43 819K
20260429T06Z_MSC_RDPS_RelativeHumidity_IsbL-0550_RLatLon0.09_PT017H.grib2 2026-04-29 08:43 836K
20260429T06Z_MSC_RDPS_RelativeHumidity_IsbL-0600_RLatLon0.09_PT017H.grib2 2026-04-29 08:43 857K
20260429T06Z_MSC_RDPS_RelativeHumidity_IsbL-0650_RLatLon0.09_PT017H.grib2 2026-04-29 08:43 870K
20260429T06Z_MSC_RDPS_RelativeHumidity_IsbL-0700_RLatLon0.09_PT017H.grib2 2026-04-29 08:43 894K
20260429T06Z_MSC_RDPS_RelativeHumidity_IsbL-0750_RLatLon0.09_PT017H.grib2 2026-04-29 08:43 935K
20260429T06Z_MSC_RDPS_RelativeHumidity_IsbL-0800_RLatLon0.09_PT017H.grib2 2026-04-29 08:43 1.0M
20260429T06Z_MSC_RDPS_RelativeHumidity_IsbL-0850_RLatLon0.09_PT017H.grib2 2026-04-29 08:43 1.0M
20260429T06Z_MSC_RDPS_RelativeHumidity_IsbL-0875_RLatLon0.09_PT017H.grib2 2026-04-29 08:43 1.0M
20260429T06Z_MSC_RDPS_RelativeHumidity_IsbL-0900_RLatLon0.09_PT017H.grib2 2026-04-29 08:43 1.1M
20260429T06Z_MSC_RDPS_RelativeHumidity_IsbL-0925_RLatLon0.09_PT017H.grib2 2026-04-29 08:43 1.1M
20260429T06Z_MSC_RDPS_RelativeHumidity_IsbL-0950_RLatLon0.09_PT017H.grib2 2026-04-29 08:43 1.1M
20260429T06Z_MSC_RDPS_RelativeHumidity_IsbL-0970_RLatLon0.09_PT017H.grib2 2026-04-29 08:43 1.0M
20260429T06Z_MSC_RDPS_RelativeHumidity_IsbL-0985_RLatLon0.09_PT017H.grib2 2026-04-29 08:43 1.0M
20260429T06Z_MSC_RDPS_RelativeHumidity_IsbL-1000_RLatLon0.09_PT017H.grib2 2026-04-29 08:43 1.0M
20260429T06Z_MSC_RDPS_RelativeHumidity_IsbL-1015_RLatLon0.09_PT017H.grib2 2026-04-29 08:43 1.0M
20260429T06Z_MSC_RDPS_Runoff-Accum_Sfc_RLatLon0.09_PT017H.grib2 2026-04-29 08:43 54K
20260429T06Z_MSC_RDPS_SWEATIndex_Sfc_RLatLon0.09_PT017H.grib2 2026-04-29 08:43 2.4M
20260429T06Z_MSC_RDPS_SeeingIndex_EAtm_RLatLon0.09_PT017H.grib2 2026-04-29 08:43 1.0M
20260429T06Z_MSC_RDPS_SensibleHeatNetFlux_Sfc_RLatLon0.09_PT017H.grib2 2026-04-29 08:43 329K
20260429T06Z_MSC_RDPS_ShowalterIndex_IsbL-0500_RLatLon0.09_PT017H.grib2 2026-04-29 08:43 2.6M
20260429T06Z_MSC_RDPS_SkyTransparencyIndex_EAtm_RLatLon0.09_PT017H.grib2 2026-04-29 08:43 681K
20260429T06Z_MSC_RDPS_Snow-Accum1h_Sfc_RLatLon0.09_PT017H.grib2 2026-04-29 08:43 449K
20260429T06Z_MSC_RDPS_Snow-Accum_Sfc_RLatLon0.09_PT017H.grib2 2026-04-29 08:43 662K
20260429T06Z_MSC_RDPS_SnowDensity_Sfc_RLatLon0.09_PT017H.grib2 2026-04-29 08:43 174K
20260429T06Z_MSC_RDPS_SnowDepth_Sfc_RLatLon0.09_PT017H.grib2 2026-04-29 08:43 683K
20260429T06Z_MSC_RDPS_SoilTemp_DBS-0to10cm_RLatLon0.09_PT017H.grib2 2026-04-29 08:43 222K
20260429T06Z_MSC_RDPS_SoilTemp_Sfc_RLatLon0.09_PT017H.grib2 2026-04-29 08:43 278K
20260429T06Z_MSC_RDPS_SoilVolumetricIceContent_Sfc_RLatLon0.09_PT017H.grib2 2026-04-29 08:43 164K
20260429T06Z_MSC_RDPS_SoilVolumetricWaterContent_DBS-0to10cm_RLatLon0.09_PT017H.grib2 2026-04-29 08:43 265K
20260429T06Z_MSC_RDPS_SoilVolumetricWaterContent_DBS-0to1cm_RLatLon0.09_PT017H.grib2 2026-04-29 08:43 332K
20260429T06Z_MSC_RDPS_SpecificHumidity_AGL-120m_RLatLon0.09_PT017H.grib2 2026-04-29 08:43 485K
20260429T06Z_MSC_RDPS_SpecificHumidity_AGL-2m_RLatLon0.09_PT017H.grib2 2026-04-29 08:43 650K
20260429T06Z_MSC_RDPS_SpecificHumidity_AGL-40m_RLatLon0.09_PT017H.grib2 2026-04-29 08:43 490K
20260429T06Z_MSC_RDPS_SpecificHumidity_AGL-80m_RLatLon0.09_PT017H.grib2 2026-04-29 08:43 486K
20260429T06Z_MSC_RDPS_SpecificHumidity_IsbL-0001_RLatLon0.09_PT017H.grib2 2026-04-29 08:43 352K
20260429T06Z_MSC_RDPS_SpecificHumidity_IsbL-0005_RLatLon0.09_PT017H.grib2 2026-04-29 08:43 360K
20260429T06Z_MSC_RDPS_SpecificHumidity_IsbL-0010_RLatLon0.09_PT017H.grib2 2026-04-29 08:43 395K
20260429T06Z_MSC_RDPS_SpecificHumidity_IsbL-0020_RLatLon0.09_PT017H.grib2 2026-04-29 08:43 389K
20260429T06Z_MSC_RDPS_SpecificHumidity_IsbL-0030_RLatLon0.09_PT017H.grib2 2026-04-29 08:43 372K
20260429T06Z_MSC_RDPS_SpecificHumidity_IsbL-0050_RLatLon0.09_PT017H.grib2 2026-04-29 08:43 463K
20260429T06Z_MSC_RDPS_SpecificHumidity_IsbL-0100_RLatLon0.09_PT017H.grib2 2026-04-29 08:43 357K
20260429T06Z_MSC_RDPS_SpecificHumidity_IsbL-0150_RLatLon0.09_PT017H.grib2 2026-04-29 08:43 492K
20260429T06Z_MSC_RDPS_SpecificHumidity_IsbL-0175_RLatLon0.09_PT017H.grib2 2026-04-29 08:43 449K
20260429T06Z_MSC_RDPS_SpecificHumidity_IsbL-0200_RLatLon0.09_PT017H.grib2 2026-04-29 08:43 464K
20260429T06Z_MSC_RDPS_SpecificHumidity_IsbL-0225_RLatLon0.09_PT017H.grib2 2026-04-29 08:43 469K
20260429T06Z_MSC_RDPS_SpecificHumidity_IsbL-0250_RLatLon0.09_PT017H.grib2 2026-04-29 08:43 532K
20260429T06Z_MSC_RDPS_SpecificHumidity_IsbL-0275_RLatLon0.09_PT017H.grib2 2026-04-29 08:43 491K
20260429T06Z_MSC_RDPS_SpecificHumidity_IsbL-0300_RLatLon0.09_PT017H.grib2 2026-04-29 08:43 467K
20260429T06Z_MSC_RDPS_SpecificHumidity_IsbL-0350_RLatLon0.09_PT017H.grib2 2026-04-29 08:43 585K
20260429T06Z_MSC_RDPS_SpecificHumidity_IsbL-0400_RLatLon0.09_PT017H.grib2 2026-04-29 08:43 535K
20260429T06Z_MSC_RDPS_SpecificHumidity_IsbL-0450_RLatLon0.09_PT017H.grib2 2026-04-29 08:43 586K
20260429T06Z_MSC_RDPS_SpecificHumidity_IsbL-0500_RLatLon0.09_PT017H.grib2 2026-04-29 08:43 523K
20260429T06Z_MSC_RDPS_SpecificHumidity_IsbL-0550_RLatLon0.09_PT017H.grib2 2026-04-29 08:43 596K
20260429T06Z_MSC_RDPS_SpecificHumidity_IsbL-0600_RLatLon0.09_PT017H.grib2 2026-04-29 08:43 651K
20260429T06Z_MSC_RDPS_SpecificHumidity_IsbL-0650_RLatLon0.09_PT017H.grib2 2026-04-29 08:43 569K
20260429T06Z_MSC_RDPS_SpecificHumidity_IsbL-0700_RLatLon0.09_PT017H.grib2 2026-04-29 08:43 613K
20260429T06Z_MSC_RDPS_SpecificHumidity_IsbL-0750_RLatLon0.09_PT017H.grib2 2026-04-29 08:43 664K
20260429T06Z_MSC_RDPS_SpecificHumidity_IsbL-0800_RLatLon0.09_PT017H.grib2 2026-04-29 08:43 736K
20260429T06Z_MSC_RDPS_SpecificHumidity_IsbL-0850_RLatLon0.09_PT017H.grib2 2026-04-29 08:43 802K
20260429T06Z_MSC_RDPS_SpecificHumidity_IsbL-0875_RLatLon0.09_PT017H.grib2 2026-04-29 08:43 826K
20260429T06Z_MSC_RDPS_SpecificHumidity_IsbL-0900_RLatLon0.09_PT017H.grib2 2026-04-29 08:43 701K
20260429T06Z_MSC_RDPS_SpecificHumidity_IsbL-0925_RLatLon0.09_PT017H.grib2 2026-04-29 08:43 703K
20260429T06Z_MSC_RDPS_SpecificHumidity_IsbL-0950_RLatLon0.09_PT017H.grib2 2026-04-29 08:43 704K
20260429T06Z_MSC_RDPS_SpecificHumidity_IsbL-0970_RLatLon0.09_PT017H.grib2 2026-04-29 08:43 692K
20260429T06Z_MSC_RDPS_SpecificHumidity_IsbL-0985_RLatLon0.09_PT017H.grib2 2026-04-29 08:43 681K
20260429T06Z_MSC_RDPS_SpecificHumidity_IsbL-1000_RLatLon0.09_PT017H.grib2 2026-04-29 08:43 672K
20260429T06Z_MSC_RDPS_SpecificHumidity_IsbL-1015_RLatLon0.09_PT017H.grib2 2026-04-29 08:43 661K
20260429T06Z_MSC_RDPS_SpecificHumidity_Sfc_RLatLon0.09_PT017H.grib2 2026-04-29 08:43 332K
20260429T06Z_MSC_RDPS_StormRelativeHelicity_EtaL-10000_RLatLon0.09_PT017H.grib2 2026-04-29 08:43 1.1M
20260429T06Z_MSC_RDPS_StormSeverityIndex_EtaL-10000_RLatLon0.09_PT017H.grib2 2026-04-29 08:43 1.1M
20260429T06Z_MSC_RDPS_Thickness_IsbL-0850to0700_RLatLon0.09_PT017H.grib2 2026-04-29 08:43 199K
20260429T06Z_MSC_RDPS_Thickness_IsbL-1000to0500_RLatLon0.09_PT017H.grib2 2026-04-29 08:43 140K
20260429T06Z_MSC_RDPS_Thickness_IsbL-1000to0850_RLatLon0.09_PT017H.grib2 2026-04-29 08:43 187K
20260429T06Z_MSC_RDPS_TotalCloudCover_Sfc_RLatLon0.09_PT017H.grib2 2026-04-29 08:43 639K
20260429T06Z_MSC_RDPS_TotalTotalsIndex_Sfc_RLatLon0.09_PT017H.grib2 2026-04-29 08:43 2.4M
20260429T06Z_MSC_RDPS_UVIndex-ClearSky_Sfc_RLatLon0.09_PT017H.grib2 2026-04-29 08:43 200K
20260429T06Z_MSC_RDPS_UVIndex_Sfc_RLatLon0.09_PT017H.grib2 2026-04-29 08:43 432K
20260429T06Z_MSC_RDPS_UpwardLongwaveRadiationFlux_NTAtm_RLatLon0.09_PT017H.grib2 2026-04-29 08:43 389K
20260429T06Z_MSC_RDPS_UpwardShortwaveRadiationFlux_NTAtm_RLatLon0.09_PT017H.grib2 2026-04-29 08:43 390K
20260429T06Z_MSC_RDPS_VerticalVelocity_IsbL-0250_RLatLon0.09_PT017H.grib2 2026-04-29 08:43 444K
20260429T06Z_MSC_RDPS_VerticalVelocity_IsbL-0500_RLatLon0.09_PT017H.grib2 2026-04-29 08:43 551K
20260429T06Z_MSC_RDPS_VerticalVelocity_IsbL-0700_RLatLon0.09_PT017H.grib2 2026-04-29 08:43 602K
20260429T06Z_MSC_RDPS_VerticalVelocity_IsbL-0850_RLatLon0.09_PT017H.grib2 2026-04-29 08:43 694K
20260429T06Z_MSC_RDPS_VerticalWindShear_EtaL-6500_RLatLon0.09_PT017H.grib2 2026-04-29 08:43 1.2M
20260429T06Z_MSC_RDPS_WindChill_Sfc_RLatLon0.09_PT017H.grib2 2026-04-29 08:43 1.1M
20260429T06Z_MSC_RDPS_WindDir_AGL-10m_RLatLon0.09_PT017H.grib2 2026-04-29 08:43 950K
20260429T06Z_MSC_RDPS_WindDir_AGL-120m_RLatLon0.09_PT017H.grib2 2026-04-29 08:43 602K
20260429T06Z_MSC_RDPS_WindDir_AGL-40m_RLatLon0.09_PT017H.grib2 2026-04-29 08:43 623K
20260429T06Z_MSC_RDPS_WindDir_AGL-80m_RLatLon0.09_PT017H.grib2 2026-04-29 08:43 610K
20260429T06Z_MSC_RDPS_WindDir_IsbL-0001_RLatLon0.09_PT017H.grib2 2026-04-29 08:43 308K
20260429T06Z_MSC_RDPS_WindDir_IsbL-0005_RLatLon0.09_PT017H.grib2 2026-04-29 08:43 358K
20260429T06Z_MSC_RDPS_WindDir_IsbL-0010_RLatLon0.09_PT017H.grib2 2026-04-29 08:43 383K
20260429T06Z_MSC_RDPS_WindDir_IsbL-0020_RLatLon0.09_PT017H.grib2 2026-04-29 08:43 407K
20260429T06Z_MSC_RDPS_WindDir_IsbL-0030_RLatLon0.09_PT017H.grib2 2026-04-29 08:43 415K
20260429T06Z_MSC_RDPS_WindDir_IsbL-0050_RLatLon0.09_PT017H.grib2 2026-04-29 08:43 425K
20260429T06Z_MSC_RDPS_WindDir_IsbL-0100_RLatLon0.09_PT017H.grib2 2026-04-29 08:43 436K
20260429T06Z_MSC_RDPS_WindDir_IsbL-0150_RLatLon0.09_PT017H.grib2 2026-04-29 08:43 426K
20260429T06Z_MSC_RDPS_WindDir_IsbL-0175_RLatLon0.09_PT017H.grib2 2026-04-29 08:43 451K
20260429T06Z_MSC_RDPS_WindDir_IsbL-0200_RLatLon0.09_PT017H.grib2 2026-04-29 08:43 465K
20260429T06Z_MSC_RDPS_WindDir_IsbL-0225_RLatLon0.09_PT017H.grib2 2026-04-29 08:43 466K
20260429T06Z_MSC_RDPS_WindDir_IsbL-0250_RLatLon0.09_PT017H.grib2 2026-04-29 08:43 471K
20260429T06Z_MSC_RDPS_WindDir_IsbL-0275_RLatLon0.09_PT017H.grib2 2026-04-29 08:43 493K
20260429T06Z_MSC_RDPS_WindDir_IsbL-0300_RLatLon0.09_PT017H.grib2 2026-04-29 08:43 487K
20260429T06Z_MSC_RDPS_WindDir_IsbL-0350_RLatLon0.09_PT017H.grib2 2026-04-29 08:43 509K
20260429T06Z_MSC_RDPS_WindDir_IsbL-0400_RLatLon0.09_PT017H.grib2 2026-04-29 08:43 523K
20260429T06Z_MSC_RDPS_WindDir_IsbL-0450_RLatLon0.09_PT017H.grib2 2026-04-29 08:43 533K
20260429T06Z_MSC_RDPS_WindDir_IsbL-0500_RLatLon0.09_PT017H.grib2 2026-04-29 08:43 553K
20260429T06Z_MSC_RDPS_WindDir_IsbL-0550_RLatLon0.09_PT017H.grib2 2026-04-29 08:43 573K
20260429T06Z_MSC_RDPS_WindDir_IsbL-0600_RLatLon0.09_PT017H.grib2 2026-04-29 08:43 606K
20260429T06Z_MSC_RDPS_WindDir_IsbL-0650_RLatLon0.09_PT017H.grib2 2026-04-29 08:43 650K
20260429T06Z_MSC_RDPS_WindDir_IsbL-0700_RLatLon0.09_PT017H.grib2 2026-04-29 08:43 694K
20260429T06Z_MSC_RDPS_WindDir_IsbL-0750_RLatLon0.09_PT017H.grib2 2026-04-29 08:43 740K
20260429T06Z_MSC_RDPS_WindDir_IsbL-0800_RLatLon0.09_PT017H.grib2 2026-04-29 08:43 799K
20260429T06Z_MSC_RDPS_WindDir_IsbL-0850_RLatLon0.09_PT017H.grib2 2026-04-29 08:43 865K
20260429T06Z_MSC_RDPS_WindDir_IsbL-0875_RLatLon0.09_PT017H.grib2 2026-04-29 08:43 888K
20260429T06Z_MSC_RDPS_WindDir_IsbL-0900_RLatLon0.09_PT017H.grib2 2026-04-29 08:43 901K
20260429T06Z_MSC_RDPS_WindDir_IsbL-0925_RLatLon0.09_PT017H.grib2 2026-04-29 08:43 907K
20260429T06Z_MSC_RDPS_WindDir_IsbL-0950_RLatLon0.09_PT017H.grib2 2026-04-29 08:43 906K
20260429T06Z_MSC_RDPS_WindDir_IsbL-0970_RLatLon0.09_PT017H.grib2 2026-04-29 08:43 911K
20260429T06Z_MSC_RDPS_WindDir_IsbL-0985_RLatLon0.09_PT017H.grib2 2026-04-29 08:43 920K
20260429T06Z_MSC_RDPS_WindDir_IsbL-1000_RLatLon0.09_PT017H.grib2 2026-04-29 08:43 929K
20260429T06Z_MSC_RDPS_WindDir_IsbL-1015_RLatLon0.09_PT017H.grib2 2026-04-29 08:43 944K
20260429T06Z_MSC_RDPS_WindGust-Max_AGL-10m_RLatLon0.09_PT017H.grib2 2026-04-29 08:43 1.0M
20260429T06Z_MSC_RDPS_WindGust-Min_AGL-10m_RLatLon0.09_PT017H.grib2 2026-04-29 08:43 968K
20260429T06Z_MSC_RDPS_WindGust_AGL-10m_RLatLon0.09_PT017H.grib2 2026-04-29 08:43 1.0M
20260429T06Z_MSC_RDPS_WindSpeed_AGL-10m_RLatLon0.09_PT017H.grib2 2026-04-29 08:43 827K
20260429T06Z_MSC_RDPS_WindSpeed_AGL-120m_RLatLon0.09_PT017H.grib2 2026-04-29 08:43 525K
20260429T06Z_MSC_RDPS_WindSpeed_AGL-40m_RLatLon0.09_PT017H.grib2 2026-04-29 08:43 530K
20260429T06Z_MSC_RDPS_WindSpeed_AGL-80m_RLatLon0.09_PT017H.grib2 2026-04-29 08:43 527K
20260429T06Z_MSC_RDPS_WindSpeed_IsbL-0001_RLatLon0.09_PT017H.grib2 2026-04-29 08:43 253K
20260429T06Z_MSC_RDPS_WindSpeed_IsbL-0005_RLatLon0.09_PT017H.grib2 2026-04-29 08:43 297K
20260429T06Z_MSC_RDPS_WindSpeed_IsbL-0010_RLatLon0.09_PT017H.grib2 2026-04-29 08:43 401K
20260429T06Z_MSC_RDPS_WindSpeed_IsbL-0020_RLatLon0.09_PT017H.grib2 2026-04-29 08:43 325K
20260429T06Z_MSC_RDPS_WindSpeed_IsbL-0030_RLatLon0.09_PT017H.grib2 2026-04-29 08:43 323K
20260429T06Z_MSC_RDPS_WindSpeed_IsbL-0050_RLatLon0.09_PT017H.grib2 2026-04-29 08:43 351K
20260429T06Z_MSC_RDPS_WindSpeed_IsbL-0100_RLatLon0.09_PT017H.grib2 2026-04-29 08:43 449K
20260429T06Z_MSC_RDPS_WindSpeed_IsbL-0150_RLatLon0.09_PT017H.grib2 2026-04-29 08:43 393K
20260429T06Z_MSC_RDPS_WindSpeed_IsbL-0175_RLatLon0.09_PT017H.grib2 2026-04-29 08:43 443K
20260429T06Z_MSC_RDPS_WindSpeed_IsbL-0200_RLatLon0.09_PT017H.grib2 2026-04-29 08:43 459K
20260429T06Z_MSC_RDPS_WindSpeed_IsbL-0225_RLatLon0.09_PT017H.grib2 2026-04-29 08:43 466K
20260429T06Z_MSC_RDPS_WindSpeed_IsbL-0250_RLatLon0.09_PT017H.grib2 2026-04-29 08:43 470K
20260429T06Z_MSC_RDPS_WindSpeed_IsbL-0275_RLatLon0.09_PT017H.grib2 2026-04-29 08:43 489K
20260429T06Z_MSC_RDPS_WindSpeed_IsbL-0300_RLatLon0.09_PT017H.grib2 2026-04-29 08:43 485K
20260429T06Z_MSC_RDPS_WindSpeed_IsbL-0350_RLatLon0.09_PT017H.grib2 2026-04-29 08:43 495K
20260429T06Z_MSC_RDPS_WindSpeed_IsbL-0400_RLatLon0.09_PT017H.grib2 2026-04-29 08:43 476K
20260429T06Z_MSC_RDPS_WindSpeed_IsbL-0450_RLatLon0.09_PT017H.grib2 2026-04-29 08:43 475K
20260429T06Z_MSC_RDPS_WindSpeed_IsbL-0500_RLatLon0.09_PT017H.grib2 2026-04-29 08:43 596K
20260429T06Z_MSC_RDPS_WindSpeed_IsbL-0550_RLatLon0.09_PT017H.grib2 2026-04-29 08:43 597K
20260429T06Z_MSC_RDPS_WindSpeed_IsbL-0600_RLatLon0.09_PT017H.grib2 2026-04-29 08:43 605K
20260429T06Z_MSC_RDPS_WindSpeed_IsbL-0650_RLatLon0.09_PT017H.grib2 2026-04-29 08:43 624K
20260429T06Z_MSC_RDPS_WindSpeed_IsbL-0700_RLatLon0.09_PT017H.grib2 2026-04-29 08:43 692K
20260429T06Z_MSC_RDPS_WindSpeed_IsbL-0750_RLatLon0.09_PT017H.grib2 2026-04-29 08:43 720K
20260429T06Z_MSC_RDPS_WindSpeed_IsbL-0800_RLatLon0.09_PT017H.grib2 2026-04-29 08:43 759K
20260429T06Z_MSC_RDPS_WindSpeed_IsbL-0850_RLatLon0.09_PT017H.grib2 2026-04-29 08:43 809K
20260429T06Z_MSC_RDPS_WindSpeed_IsbL-0875_RLatLon0.09_PT017H.grib2 2026-04-29 08:43 827K
20260429T06Z_MSC_RDPS_WindSpeed_IsbL-0900_RLatLon0.09_PT017H.grib2 2026-04-29 08:43 842K
20260429T06Z_MSC_RDPS_WindSpeed_IsbL-0925_RLatLon0.09_PT017H.grib2 2026-04-29 08:43 847K
20260429T06Z_MSC_RDPS_WindSpeed_IsbL-0950_RLatLon0.09_PT017H.grib2 2026-04-29 08:43 846K
20260429T06Z_MSC_RDPS_WindSpeed_IsbL-0970_RLatLon0.09_PT017H.grib2 2026-04-29 08:43 848K
20260429T06Z_MSC_RDPS_WindSpeed_IsbL-0985_RLatLon0.09_PT017H.grib2 2026-04-29 08:43 844K
20260429T06Z_MSC_RDPS_WindSpeed_IsbL-1000_RLatLon0.09_PT017H.grib2 2026-04-29 08:43 838K
20260429T06Z_MSC_RDPS_WindSpeed_IsbL-1015_RLatLon0.09_PT017H.grib2 2026-04-29 08:43 829K
20260429T06Z_MSC_RDPS_WindU_AGL-10m_RLatLon0.09_PT017H.grib2 2026-04-29 08:43 427K
20260429T06Z_MSC_RDPS_WindU_AGL-120m_RLatLon0.09_PT017H.grib2 2026-04-29 08:43 525K
20260429T06Z_MSC_RDPS_WindU_AGL-40m_RLatLon0.09_PT017H.grib2 2026-04-29 08:43 528K
20260429T06Z_MSC_RDPS_WindU_AGL-80m_RLatLon0.09_PT017H.grib2 2026-04-29 08:43 527K
20260429T06Z_MSC_RDPS_WindU_IsbL-0001_RLatLon0.09_PT017H.grib2 2026-04-29 08:43 292K
20260429T06Z_MSC_RDPS_WindU_IsbL-0005_RLatLon0.09_PT017H.grib2 2026-04-29 08:43 289K
20260429T06Z_MSC_RDPS_WindU_IsbL-0010_RLatLon0.09_PT017H.grib2 2026-04-29 08:43 299K
20260429T06Z_MSC_RDPS_WindU_IsbL-0020_RLatLon0.09_PT017H.grib2 2026-04-29 08:43 353K
20260429T06Z_MSC_RDPS_WindU_IsbL-0030_RLatLon0.09_PT017H.grib2 2026-04-29 08:43 314K
20260429T06Z_MSC_RDPS_WindU_IsbL-0050_RLatLon0.09_PT017H.grib2 2026-04-29 08:43 344K
20260429T06Z_MSC_RDPS_WindU_IsbL-0100_RLatLon0.09_PT017H.grib2 2026-04-29 08:43 344K
20260429T06Z_MSC_RDPS_WindU_IsbL-0150_RLatLon0.09_PT017H.grib2 2026-04-29 08:43 406K
20260429T06Z_MSC_RDPS_WindU_IsbL-0175_RLatLon0.09_PT017H.grib2 2026-04-29 08:43 433K
20260429T06Z_MSC_RDPS_WindU_IsbL-0200_RLatLon0.09_PT017H.grib2 2026-04-29 08:43 449K
20260429T06Z_MSC_RDPS_WindU_IsbL-0225_RLatLon0.09_PT017H.grib2 2026-04-29 08:43 455K
20260429T06Z_MSC_RDPS_WindU_IsbL-0250_RLatLon0.09_PT017H.grib2 2026-04-29 08:43 356K
20260429T06Z_MSC_RDPS_WindU_IsbL-0275_RLatLon0.09_PT017H.grib2 2026-04-29 08:43 373K
20260429T06Z_MSC_RDPS_WindU_IsbL-0300_RLatLon0.09_PT017H.grib2 2026-04-29 08:43 368K
20260429T06Z_MSC_RDPS_WindU_IsbL-0350_RLatLon0.09_PT017H.grib2 2026-04-29 08:43 482K
20260429T06Z_MSC_RDPS_WindU_IsbL-0400_RLatLon0.09_PT017H.grib2 2026-04-29 08:43 480K
20260429T06Z_MSC_RDPS_WindU_IsbL-0450_RLatLon0.09_PT017H.grib2 2026-04-29 08:43 479K
20260429T06Z_MSC_RDPS_WindU_IsbL-0500_RLatLon0.09_PT017H.grib2 2026-04-29 08:43 480K
20260429T06Z_MSC_RDPS_WindU_IsbL-0550_RLatLon0.09_PT017H.grib2 2026-04-29 08:43 464K
20260429T06Z_MSC_RDPS_WindU_IsbL-0600_RLatLon0.09_PT017H.grib2 2026-04-29 08:43 474K
20260429T06Z_MSC_RDPS_WindU_IsbL-0650_RLatLon0.09_PT017H.grib2 2026-04-29 08:43 492K
20260429T06Z_MSC_RDPS_WindU_IsbL-0700_RLatLon0.09_PT017H.grib2 2026-04-29 08:43 515K
20260429T06Z_MSC_RDPS_WindU_IsbL-0750_RLatLon0.09_PT017H.grib2 2026-04-29 08:43 540K
20260429T06Z_MSC_RDPS_WindU_IsbL-0800_RLatLon0.09_PT017H.grib2 2026-04-29 08:43 574K
20260429T06Z_MSC_RDPS_WindU_IsbL-0850_RLatLon0.09_PT017H.grib2 2026-04-29 08:43 618K
20260429T06Z_MSC_RDPS_WindU_IsbL-0875_RLatLon0.09_PT017H.grib2 2026-04-29 08:43 633K
20260429T06Z_MSC_RDPS_WindU_IsbL-0900_RLatLon0.09_PT017H.grib2 2026-04-29 08:43 643K
20260429T06Z_MSC_RDPS_WindU_IsbL-0925_RLatLon0.09_PT017H.grib2 2026-04-29 08:43 650K
20260429T06Z_MSC_RDPS_WindU_IsbL-0950_RLatLon0.09_PT017H.grib2 2026-04-29 08:43 646K
20260429T06Z_MSC_RDPS_WindU_IsbL-0970_RLatLon0.09_PT017H.grib2 2026-04-29 08:43 645K
20260429T06Z_MSC_RDPS_WindU_IsbL-0985_RLatLon0.09_PT017H.grib2 2026-04-29 08:43 781K
20260429T06Z_MSC_RDPS_WindU_IsbL-1000_RLatLon0.09_PT017H.grib2 2026-04-29 08:43 775K
20260429T06Z_MSC_RDPS_WindU_IsbL-1015_RLatLon0.09_PT017H.grib2 2026-04-29 08:43 769K
20260429T06Z_MSC_RDPS_WindV_AGL-10m_RLatLon0.09_PT017H.grib2 2026-04-29 08:43 428K
20260429T06Z_MSC_RDPS_WindV_AGL-120m_RLatLon0.09_PT017H.grib2 2026-04-29 08:43 524K
20260429T06Z_MSC_RDPS_WindV_AGL-40m_RLatLon0.09_PT017H.grib2 2026-04-29 08:43 528K
20260429T06Z_MSC_RDPS_WindV_AGL-80m_RLatLon0.09_PT017H.grib2 2026-04-29 08:43 525K
20260429T06Z_MSC_RDPS_WindV_IsbL-0001_RLatLon0.09_PT017H.grib2 2026-04-29 08:43 244K
20260429T06Z_MSC_RDPS_WindV_IsbL-0005_RLatLon0.09_PT017H.grib2 2026-04-29 08:43 288K
20260429T06Z_MSC_RDPS_WindV_IsbL-0010_RLatLon0.09_PT017H.grib2 2026-04-29 08:43 301K
20260429T06Z_MSC_RDPS_WindV_IsbL-0020_RLatLon0.09_PT017H.grib2 2026-04-29 08:43 316K
20260429T06Z_MSC_RDPS_WindV_IsbL-0030_RLatLon0.09_PT017H.grib2 2026-04-29 08:43 355K
20260429T06Z_MSC_RDPS_WindV_IsbL-0050_RLatLon0.09_PT017H.grib2 2026-04-29 08:43 344K
20260429T06Z_MSC_RDPS_WindV_IsbL-0100_RLatLon0.09_PT017H.grib2 2026-04-29 08:43 338K
20260429T06Z_MSC_RDPS_WindV_IsbL-0150_RLatLon0.09_PT017H.grib2 2026-04-29 08:43 405K
20260429T06Z_MSC_RDPS_WindV_IsbL-0175_RLatLon0.09_PT017H.grib2 2026-04-29 08:43 431K
20260429T06Z_MSC_RDPS_WindV_IsbL-0200_RLatLon0.09_PT017H.grib2 2026-04-29 08:43 348K
20260429T06Z_MSC_RDPS_WindV_IsbL-0225_RLatLon0.09_PT017H.grib2 2026-04-29 08:43 352K
20260429T06Z_MSC_RDPS_WindV_IsbL-0250_RLatLon0.09_PT017H.grib2 2026-04-29 08:43 380K
20260429T06Z_MSC_RDPS_WindV_IsbL-0275_RLatLon0.09_PT017H.grib2 2026-04-29 08:43 394K
20260429T06Z_MSC_RDPS_WindV_IsbL-0300_RLatLon0.09_PT017H.grib2 2026-04-29 08:43 389K
20260429T06Z_MSC_RDPS_WindV_IsbL-0350_RLatLon0.09_PT017H.grib2 2026-04-29 08:43 374K
20260429T06Z_MSC_RDPS_WindV_IsbL-0400_RLatLon0.09_PT017H.grib2 2026-04-29 08:43 373K
20260429T06Z_MSC_RDPS_WindV_IsbL-0450_RLatLon0.09_PT017H.grib2 2026-04-29 08:43 477K
20260429T06Z_MSC_RDPS_WindV_IsbL-0500_RLatLon0.09_PT017H.grib2 2026-04-29 08:43 479K
20260429T06Z_MSC_RDPS_WindV_IsbL-0550_RLatLon0.09_PT017H.grib2 2026-04-29 08:43 480K
20260429T06Z_MSC_RDPS_WindV_IsbL-0600_RLatLon0.09_PT017H.grib2 2026-04-29 08:43 489K
20260429T06Z_MSC_RDPS_WindV_IsbL-0650_RLatLon0.09_PT017H.grib2 2026-04-29 08:43 506K
20260429T06Z_MSC_RDPS_WindV_IsbL-0700_RLatLon0.09_PT017H.grib2 2026-04-29 08:43 511K
20260429T06Z_MSC_RDPS_WindV_IsbL-0750_RLatLon0.09_PT017H.grib2 2026-04-29 08:43 535K
20260429T06Z_MSC_RDPS_WindV_IsbL-0800_RLatLon0.09_PT017H.grib2 2026-04-29 08:43 569K
20260429T06Z_MSC_RDPS_WindV_IsbL-0850_RLatLon0.09_PT017H.grib2 2026-04-29 08:43 613K
20260429T06Z_MSC_RDPS_WindV_IsbL-0875_RLatLon0.09_PT017H.grib2 2026-04-29 08:43 629K
20260429T06Z_MSC_RDPS_WindV_IsbL-0900_RLatLon0.09_PT017H.grib2 2026-04-29 08:43 641K
20260429T06Z_MSC_RDPS_WindV_IsbL-0925_RLatLon0.09_PT017H.grib2 2026-04-29 08:43 648K
20260429T06Z_MSC_RDPS_WindV_IsbL-0950_RLatLon0.09_PT017H.grib2 2026-04-29 08:43 645K
20260429T06Z_MSC_RDPS_WindV_IsbL-0970_RLatLon0.09_PT017H.grib2 2026-04-29 08:43 646K
20260429T06Z_MSC_RDPS_WindV_IsbL-0985_RLatLon0.09_PT017H.grib2 2026-04-29 08:43 783K
20260429T06Z_MSC_RDPS_WindV_IsbL-1000_RLatLon0.09_PT017H.grib2 2026-04-29 08:43 776K
20260429T06Z_MSC_RDPS_WindV_IsbL-1015_RLatLon0.09_PT017H.grib2 2026-04-29 08:43 815K